Aérodrome :
LOGIN :

S'inscrire | Disclaimer

   EN    FR    IT 

 










Légende :    VFR   VFR Marginal   IFR   IFR Intensif   IFR Très Intensif
Visi : 
Plafond : 
>= 8 km
>= 3000ft
5 à 8 km
1000 à 3000 ft
1500m à 5 km
500 à 1000 ft
800 à 1500m
200 à 500 ft
< 800m
< 200 ft
Symboles :   Orages  Brouillard  Fortes neiges  Fortes précipitations  Vent > 20 kt
SIGMETs :   Divers  Orages  Givrage  Turbulence  Onde Orograph.  Cendres Volcan.






- Altitude de l'aérodrome : 2731 ft
- Code IATA : LPY


LFHP - Le Puy Loudes

DERNIER METAR :
  • 041600Z AUTO 26006KT 220V330 9999 FEW028/// SCT034/// BKN044/// ///CB 18/13 Q1014

METARs EXPIRÉS :
  • 041530Z AUTO 26006KT 230V310 9999 SCT033/// BKN040/// BKN047/// ///CB 18/13 Q1014
  • 041500Z AUTO 29005KT 230V340 9999 FEW034/// BKN062/// BKN088/// ///CB 19/13 Q1014
  • 041430Z AUTO 30006KT 250V360 9999 FEW025/// ///TCU 19/13 Q1014
  • 041400Z AUTO 29006KT 240V350 9999 FEW016 SCT045 BKN060 19/13 Q1014
  • 041330Z AUTO 31003KT 250V030 9999 FEW015 SCT035 BKN042 17/13 Q1014
  • 041300Z AUTO 31004KT 270V340 9999 FEW019 SCT028 BKN034 16/13 Q1014

Prévision TAF périmée.



MET'MAP, la Météo Aéronautique d'un coup d'oeil ! - Copyright ORBIFLY Décembre 2007 - Disclaimer

ORBIFLY MET'MAP TEAM :

Programmation & Développement : Alexandra Zaïnal
Sur une idée originale de : Baudouin d'Aumeries
Assistance à la programmation : Marc-Olivier Méhu
Soutien technique & logistique : Manuel Goepfert

Contact : metmap@orbifly.com




SOURCES & CREDITS :

   NOAA